EJU35FD LIMC-ELLX

Flight info

Callsign EJU35FD
Flight time 0h 53m
Altitude 34000
Route AOSTA5W AOSTA DCT ORSUD DCT MOLUS DCT GILIR DCT PENDU DCT IXILU DCT EPL G21 GIVOR GIVO5S
Aircraft A320/M-SDE3FGHIRWY/LB1

Departure

Time 2026-05-07 13:12
Airport Milan Malpensa International Airport (LIMC)

Arrival

Time 2026-05-07 14:05
Airport Luxembourg-Findel International Airport (ELLX)
Time Latitude Longitude Altitude Speed Heading
2026-05-07 12:31 45.64832 8.72447 736 ft 0 kts 259°
2026-05-07 12:56 45.64832 8.72448 736 ft 2 kts 259°
2026-05-07 12:56 45.64835 8.72484 735 ft 4 kts 274°
2026-05-07 12:57 45.64830 8.72521 734 ft 4 kts 292°
2026-05-07 12:57 45.64819 8.72556 734 ft 4 kts 286°
2026-05-07 12:57 45.64810 8.72572 733 ft 3 kts 184°
2026-05-07 13:02 45.64794 8.72574 736 ft 3 kts 173°
2026-05-07 13:02 45.64745 8.72586 735 ft 10 kts 169°
2026-05-07 13:02 45.64662 8.72609 736 ft 14 kts 169°
2026-05-07 13:03 45.64569 8.72635 736 ft 12 kts 169°
2026-05-07 13:03 45.64508 8.72647 736 ft 8 kts 185°
2026-05-07 13:03 45.64470 8.72593 736 ft 9 kts 251°
2026-05-07 13:03 45.64456 8.72491 736 ft 10 kts 260°
2026-05-07 13:04 45.64427 8.72431 735 ft 9 kts 202°
2026-05-07 13:04 45.64356 8.72443 735 ft 12 kts 168°
2026-05-07 13:04 45.64260 8.72471 735 ft 16 kts 168°
2026-05-07 13:04 45.64139 8.72505 736 ft 19 kts 169°
2026-05-07 13:05 45.64025 8.72545 735 ft 16 kts 165°
2026-05-07 13:05 45.63902 8.72580 736 ft 20 kts 168°
2026-05-07 13:05 45.63757 8.72621 736 ft 23 kts 169°
2026-05-07 13:05 45.63592 8.72666 736 ft 25 kts 169°
2026-05-07 13:06 45.63497 8.72692 736 ft 11 kts 169°
2026-05-07 13:06 45.63406 8.72717 736 ft 15 kts 169°
2026-05-07 13:06 45.63289 8.72749 736 ft 19 kts 169°
2026-05-07 13:06 45.63152 8.72786 736 ft 22 kts 169°
2026-05-07 13:07 45.62992 8.72830 735 ft 25 kts 169°
2026-05-07 13:07 45.62814 8.72879 736 ft 27 kts 169°
2026-05-07 13:07 45.62669 8.72919 737 ft 12 kts 169°
2026-05-07 13:07 45.62575 8.72945 737 ft 16 kts 169°
2026-05-07 13:08 45.62455 8.72978 737 ft 19 kts 169°
2026-05-07 13:08 45.62312 8.73017 737 ft 22 kts 169°
2026-05-07 13:08 45.62148 8.73062 737 ft 25 kts 169°
2026-05-07 13:08 45.61970 8.73111 737 ft 24 kts 169°
2026-05-07 13:09 45.61833 8.73149 737 ft 17 kts 168°
2026-05-07 13:09 45.61737 8.73215 737 ft 17 kts 130°
2026-05-07 13:09 45.61663 8.73370 737 ft 19 kts 125°
2026-05-07 13:09 45.61601 8.73506 737 ft 13 kts 121°
2026-05-07 13:10 45.61584 8.73593 737 ft 8 kts 90°
2026-05-07 13:10 45.61592 8.73666 737 ft 7 kts 79°
2026-05-07 13:10 45.61600 8.73727 737 ft 6 kts 76°
2026-05-07 13:10 45.61629 8.73740 737 ft 4 kts 346°
2026-05-07 13:11 45.61707 8.73713 737 ft 35 kts 349°
2026-05-07 13:11 45.62200 8.73577 738 ft 107 kts 349°
2026-05-07 13:11 45.63130 8.73319 735 ft 162 kts 349°
2026-05-07 13:11 45.64279 8.73013 1298 ft 166 kts 350°
2026-05-07 13:12 45.65037 8.72825 1796 ft 167 kts 350°
2026-05-07 13:12 45.66234 8.72611 2321 ft 183 kts 360°
2026-05-07 13:12 45.67583 8.72615 2677 ft 206 kts 360°
2026-05-07 13:12 45.69105 8.72612 3108 ft 228 kts 360°
2026-05-07 13:13 45.70695 8.72605 3888 ft 233 kts 359°
2026-05-07 13:13 45.72277 8.72109 4712 ft 237 kts 327°
2026-05-07 13:13 45.73336 8.70339 5526 ft 239 kts 289°
2026-05-07 13:13 45.73444 8.67976 6371 ft 241 kts 260°
2026-05-07 13:14 45.73027 8.65632 7143 ft 249 kts 252°
2026-05-07 13:14 45.72439 8.63177 7594 ft 270 kts 250°
2026-05-07 13:14 45.71768 8.60616 8377 ft 278 kts 244°
2026-05-07 13:14 45.70720 8.58315 9246 ft 282 kts 234°
2026-05-07 13:15 45.69598 8.55989 10141 ft 285 kts 239°
2026-05-07 13:15 45.68846 8.53372 10950 ft 287 kts 260°
2026-05-07 13:15 45.68841 8.50513 11763 ft 289 kts 277°
2026-05-07 13:15 45.69115 8.47646 12623 ft 291 kts 278°
2026-05-07 13:16 45.69405 8.44764 13461 ft 293 kts 278°
2026-05-07 13:16 45.69695 8.41886 14226 ft 296 kts 278°
2026-05-07 13:16 45.69985 8.38948 14947 ft 298 kts 278°
2026-05-07 13:16 45.70274 8.36000 15643 ft 300 kts 278°
2026-05-07 13:17 45.70560 8.33059 16349 ft 303 kts 277°
2026-05-07 13:17 45.70849 8.30049 17055 ft 306 kts 277°
2026-05-07 13:17 45.71140 8.27011 17765 ft 309 kts 277°
2026-05-07 13:17 45.71433 8.23952 18418 ft 313 kts 277°
2026-05-07 13:18 45.71732 8.20809 18563 ft 332 kts 277°
2026-05-07 13:18 45.72050 8.17464 18793 ft 345 kts 277°
2026-05-07 13:18 45.72378 8.14024 19297 ft 351 kts 277°
2026-05-07 13:18 45.72709 8.10547 19802 ft 354 kts 277°
2026-05-07 13:19 45.73041 8.07044 20028 ft 356 kts 277°
2026-05-07 13:19 45.73374 8.03510 20645 ft 358 kts 277°
2026-05-07 13:19 45.73705 7.99967 21246 ft 361 kts 277°
2026-05-07 13:19 45.74040 7.96368 21864 ft 363 kts 277°
2026-05-07 13:20 45.74369 7.92821 22400 ft 366 kts 277°
2026-05-07 13:20 45.74709 7.89184 23011 ft 369 kts 277°
2026-05-07 13:20 45.75050 7.85518 23585 ft 372 kts 277°
2026-05-07 13:20 45.75392 7.81829 24072 ft 375 kts 277°
2026-05-07 13:21 45.75735 7.78120 24566 ft 376 kts 277°
2026-05-07 13:21 45.76077 7.74441 25082 ft 377 kts 277°
2026-05-07 13:21 45.76422 7.70699 25588 ft 378 kts 277°
2026-05-07 13:21 45.76770 7.66955 26069 ft 379 kts 277°
2026-05-07 13:22 45.77113 7.63186 26550 ft 380 kts 277°
2026-05-07 13:22 45.77449 7.59461 27016 ft 382 kts 277°
2026-05-07 13:22 45.77791 7.55675 27464 ft 383 kts 277°
2026-05-07 13:22 45.78128 7.51886 27876 ft 385 kts 277°
2026-05-07 13:23 45.78466 7.48077 28309 ft 386 kts 277°
2026-05-07 13:23 45.78805 7.44295 28738 ft 387 kts 276°
2026-05-07 13:23 45.79273 7.40483 29116 ft 390 kts 284°
2026-05-07 13:23 45.80238 7.36831 29512 ft 394 kts 295°
2026-05-07 13:24 45.81710 7.33482 29890 ft 399 kts 306°
2026-05-07 13:24 45.83658 7.30590 30204 ft 407 kts 316°
2026-05-07 13:24 45.85961 7.28171 30480 ft 411 kts 320°
2026-05-07 13:24 45.88275 7.25832 30765 ft 412 kts 320°
2026-05-07 13:25 45.90631 7.23442 31033 ft 414 kts 320°
2026-05-07 13:25 45.92988 7.21046 31333 ft 417 kts 320°
2026-05-07 13:25 45.95357 7.18633 31662 ft 415 kts 320°
2026-05-07 13:25 45.97676 7.16267 32013 ft 415 kts 320°
2026-05-07 13:26 46.00035 7.13856 32350 ft 414 kts 320°
2026-05-07 13:26 46.02386 7.11450 32753 ft 413 kts 320°
2026-05-07 13:26 46.04735 7.09041 33147 ft 413 kts 320°
2026-05-07 13:26 46.07072 7.06644 33546 ft 412 kts 320°
2026-05-07 13:27 46.09383 7.04265 33907 ft 413 kts 319°
2026-05-07 13:27 46.11704 7.01867 33979 ft 405 kts 319°
2026-05-07 13:27 46.16258 6.97179 33991 ft 400 kts 320°
2026-05-07 13:28 46.20764 6.92536 33995 ft 399 kts 320°
2026-05-07 13:28 46.25286 6.87858 33998 ft 399 kts 320°
2026-05-07 13:29 46.29807 6.83168 34008 ft 399 kts 320°
2026-05-07 13:29 46.34296 6.78504 34000 ft 399 kts 319°
2026-05-07 13:30 46.38811 6.73800 33995 ft 399 kts 319°
2026-05-07 13:30 46.43299 6.69116 34011 ft 399 kts 320°
2026-05-07 13:31 46.48233 6.65258 34001 ft 404 kts 329°
2026-05-07 13:31 46.53302 6.61697 34004 ft 405 kts 329°
2026-05-07 13:32 46.58350 6.58140 34009 ft 404 kts 329°
2026-05-07 13:32 46.63422 6.54550 34003 ft 405 kts 329°
2026-05-07 13:33 46.68492 6.50968 34008 ft 405 kts 329°
2026-05-07 13:33 46.73533 6.47404 34013 ft 405 kts 329°
2026-05-07 13:34 46.81142 6.41996 34017 ft 405 kts 329°
2026-05-07 13:35 46.86187 6.38387 34024 ft 405 kts 329°
2026-05-07 13:35 46.91265 6.34748 34024 ft 405 kts 330°
2026-05-07 13:36 46.96310 6.31137 34030 ft 405 kts 330°
2026-05-07 13:36 47.01394 6.27494 34031 ft 405 kts 330°
2026-05-07 13:37 47.06467 6.23847 34034 ft 406 kts 330°
2026-05-07 13:37 47.11515 6.20209 34041 ft 406 kts 330°
2026-05-07 13:38 47.16588 6.16548 34042 ft 406 kts 330°
2026-05-07 13:38 47.21643 6.12902 34041 ft 406 kts 330°
2026-05-07 13:39 47.26731 6.09221 34041 ft 406 kts 330°
2026-05-07 13:39 47.31811 6.05545 34037 ft 406 kts 332°
2026-05-07 13:40 47.37285 6.03444 34035 ft 415 kts 352°
2026-05-07 13:40 47.43097 6.03469 34038 ft 418 kts 357°
2026-05-07 13:41 47.48932 6.03597 34037 ft 418 kts 357°
2026-05-07 13:41 47.54731 6.03717 34041 ft 418 kts 357°
2026-05-07 13:42 47.60566 6.03839 34044 ft 418 kts 357°
2026-05-07 13:42 47.66397 6.03981 34054 ft 418 kts 357°
2026-05-07 13:43 47.72187 6.04126 34054 ft 418 kts 357°
2026-05-07 13:43 47.78016 6.04273 34055 ft 418 kts 357°
2026-05-07 13:44 47.83839 6.04439 34053 ft 418 kts 358°
2026-05-07 13:44 47.89639 6.04616 34054 ft 418 kts 358°
2026-05-07 13:45 47.95463 6.04802 34053 ft 418 kts 358°
2026-05-07 13:45 48.01290 6.04988 34052 ft 418 kts 358°
2026-05-07 13:46 48.07082 6.05176 34056 ft 418 kts 358°
2026-05-07 13:46 48.12921 6.05352 34058 ft 418 kts 358°
2026-05-07 13:47 48.18752 6.05454 33271 ft 428 kts 357°
2026-05-07 13:47 48.21809 6.05416 31836 ft 443 kts 357°
2026-05-07 13:47 48.24916 6.05339 30739 ft 448 kts 357°
2026-05-07 13:47 48.28013 6.05251 29674 ft 451 kts 357°
2026-05-07 13:48 48.31168 6.05164 28604 ft 452 kts 357°
2026-05-07 13:48 48.34297 6.05091 27828 ft 447 kts 358°
2026-05-07 13:48 48.37407 6.05033 26887 ft 446 kts 358°
2026-05-07 13:48 48.40475 6.04986 26056 ft 444 kts 358°
2026-05-07 13:49 48.43551 6.04943 25302 ft 440 kts 358°
2026-05-07 13:49 48.46614 6.04895 24580 ft 437 kts 358°
2026-05-07 13:49 48.49639 6.04847 23898 ft 433 kts 358°
2026-05-07 13:49 48.52649 6.04796 23236 ft 428 kts 358°
2026-05-07 13:50 48.55580 6.04748 23055 ft 412 kts 358°
2026-05-07 13:50 48.58415 6.04705 22654 ft 404 kts 358°
2026-05-07 13:50 48.61181 6.04665 22141 ft 399 kts 358°
2026-05-07 13:50 48.63958 6.04621 21617 ft 396 kts 358°
2026-05-07 13:51 48.66712 6.04575 21100 ft 393 kts 358°
2026-05-07 13:51 48.69442 6.04521 20574 ft 390 kts 357°
2026-05-07 13:51 48.72118 6.04465 20073 ft 388 kts 357°
2026-05-07 13:51 48.74801 6.04416 19425 ft 382 kts 358°
2026-05-07 13:52 48.77453 6.04371 18621 ft 377 kts 357°
2026-05-07 13:52 48.80035 6.04328 18093 ft 365 kts 357°
2026-05-07 13:52 48.82538 6.04285 17624 ft 356 kts 358°
2026-05-07 13:52 48.85012 6.04241 17162 ft 354 kts 358°
2026-05-07 13:53 48.87436 6.04194 16720 ft 352 kts 358°
2026-05-07 13:53 48.89889 6.04146 16266 ft 350 kts 358°
2026-05-07 13:53 48.92320 6.04099 15823 ft 348 kts 358°
2026-05-07 13:53 48.94741 6.04058 15381 ft 347 kts 358°
2026-05-07 13:54 48.97149 6.04018 14935 ft 345 kts 358°
2026-05-07 13:54 48.99524 6.03977 14505 ft 344 kts 358°
2026-05-07 13:54 49.01914 6.03936 14059 ft 343 kts 358°
2026-05-07 13:54 49.04294 6.03894 13581 ft 342 kts 359°
2026-05-07 13:55 49.06667 6.03856 13263 ft 335 kts 359°
2026-05-07 13:55 49.08941 6.03819 12990 ft 327 kts 359°
2026-05-07 13:55 49.11212 6.03782 12577 ft 323 kts 358°
2026-05-07 13:55 49.13446 6.03744 11935 ft 320 kts 358°
2026-05-07 13:56 49.15672 6.03703 11451 ft 319 kts 358°
2026-05-07 13:56 49.17888 6.03663 11039 ft 316 kts 358°
2026-05-07 13:56 49.20057 6.03629 10637 ft 314 kts 358°
2026-05-07 13:56 49.22235 6.03593 10363 ft 304 kts 358°
2026-05-07 13:57 49.24307 6.03558 10006 ft 291 kts 358°
2026-05-07 13:57 49.26325 6.03522 9510 ft 289 kts 358°
2026-05-07 13:57 49.28298 6.03485 9163 ft 285 kts 358°
2026-05-07 13:57 49.30276 6.03446 8783 ft 283 kts 358°
2026-05-07 13:58 49.32240 6.03410 8429 ft 280 kts 358°
2026-05-07 13:58 49.34190 6.03374 8014 ft 279 kts 358°
2026-05-07 13:58 49.36109 6.03339 7617 ft 278 kts 358°
2026-05-07 13:58 49.38023 6.03305 7271 ft 268 kts 358°
2026-05-07 13:59 49.39819 6.03273 7128 ft 250 kts 358°
2026-05-07 13:59 49.41530 6.03242 6764 ft 242 kts 359°
2026-05-07 13:59 49.43204 6.03212 6255 ft 239 kts 359°
2026-05-07 13:59 49.44833 6.03182 5933 ft 229 kts 358°
2026-05-07 14:00 49.46367 6.02836 5568 ft 222 kts 342°
2026-05-07 14:00 49.47762 6.01903 5248 ft 218 kts 329°
2026-05-07 14:00 49.49076 6.00733 4914 ft 219 kts 330°
2026-05-07 14:00 49.50421 5.99599 4518 ft 223 kts 338°
2026-05-07 14:01 49.51927 5.99111 4244 ft 219 kts 360°
2026-05-07 14:01 49.53398 5.99478 4078 ft 211 kts 20°
2026-05-07 14:01 49.54645 6.00552 3890 ft 206 kts 40°
2026-05-07 14:01 49.55571 6.02212 3659 ft 203 kts 59°
2026-05-07 14:02 49.56265 6.04070 3414 ft 198 kts 59°
2026-05-07 14:02 49.56945 6.05882 3129 ft 190 kts 59°
2026-05-07 14:02 49.57576 6.07570 2888 ft 177 kts 59°
2026-05-07 14:02 49.58161 6.09132 2671 ft 159 kts 59°
2026-05-07 14:03 49.58691 6.10550 2456 ft 147 kts 59°
2026-05-07 14:03 49.59193 6.11894 2256 ft 143 kts 59°
2026-05-07 14:03 49.59680 6.13194 2048 ft 140 kts 59°
2026-05-07 14:03 49.60164 6.14495 1846 ft 138 kts 60°
2026-05-07 14:04 49.60480 6.15344 1721 ft 137 kts 60°
2026-05-07 14:04 49.60952 6.16609 1536 ft 136 kts 60°
2026-05-07 14:04 49.61573 6.18275 1286 ft 134 kts 60°
2026-05-07 14:04 49.61887 6.19114 1176 ft 131 kts 59°
2026-05-07 14:05 49.62265 6.20135 1188 ft 82 kts 60°
2026-05-07 14:05 49.62470 6.20682 1190 ft 51 kts 60°
2026-05-07 14:05 49.62624 6.21040 1198 ft 23 kts 48°
2026-05-07 14:05 49.62705 6.21144 1199 ft 20 kts 33°
2026-05-07 14:06 49.62809 6.21240 1200 ft 11 kts 31°
2026-05-07 14:06 49.62868 6.21294 1199 ft 10 kts 30°
2026-05-07 14:06 49.62922 6.21342 1201 ft 8 kts 30°
2026-05-07 14:06 49.62928 6.21346 1201 ft 0 kts 29°
2026-05-07 14:07 49.62960 6.21375 1203 ft 15 kts 30°
2026-05-07 14:07 49.63029 6.21490 1203 ft 16 kts 63°
2026-05-07 14:07 49.63076 6.21640 1206 ft 15 kts 64°
2026-05-07 14:07 49.63116 6.21769 1208 ft 12 kts 65°
2026-05-07 14:08 49.63155 6.21879 1209 ft 10 kts 38°
2026-05-07 14:08 49.63212 6.21864 1212 ft 9 kts 335°
2026-05-07 14:08 49.63261 6.21822 1216 ft 7 kts 329°
2026-05-07 14:08 49.63294 6.21795 1218 ft 4 kts 336°
2026-05-07 14:09 49.63337 6.21765 1221 ft 8 kts 332°
2026-05-07 14:09 49.63370 6.21736 1222 ft 3 kts 329°
2026-05-07 14:09 49.63372 6.21734 1222 ft 0 kts 329°